{"data":{"norad_id":58856,"epoch":"2026-05-25T03:06:21.278016Z","epoch_age_seconds":57057,"freshness":"FRESH","line1":"1 58856U 24019D   26145.12941294  .00000678  00000+0  34172-4 0  9999","line2":"2 58856  43.0020 177.1671 0001175 272.8603  87.2114 15.27576641130770","mean_motion":15.27576641,"eccentricity":0.0001175,"inclination_deg":43.002,"raan_deg":177.1671,"arg_perigee_deg":272.8603,"mean_anomaly_deg":87.2114,"bstar":3.4172e-5,"rev_number":13077,"period_min":94.266955997529,"perigee_km":482.25296356437,"apogee_km":483.86534466059,"semimajor_km":6861.1961541125,"source":"CELESTRAK","updated_at":"2026-05-25T13:38:18.757964Z"}}